Total_Precipitation_Accumulation
0.01 0.02 0.03 0.04 0.05 0.04 0.06 0.08 0.11 0.14 0.13 0.16 0.29 0.55 0.81 0.93 1.22 1.18 1.18 1.34 1.49 1.61 1.92 2.34 2.66 3.21 3.81 4.20 4.59 4.74 4.76 4.68 4.51 4.14 3.83 3.59 3.35 3.14 2.89 2.71 2.63 2.52 2.42 2.60
0.02 0.04 0.03 0.03 0.04 0.06 0.07 0.08 0.11 0.16 0.16 0.22 0.41 0.63 0.92 0.93 1.00 1.06 0.98 1.04 1.21 1.56 1.82 2.34 2.65 2.87 3.33 3.84 4.30 4.60 4.75 4.65 4.27 3.90 3.71 3.58 3.52 3.13 2.83 2.81 2.93 2.76 2.75 2.79
0.02 0.04 0.03 0.04 0.04 0.06 0.09 0.09 0.11 0.12 0.15 0.29 0.45 0.87 1.11 1.00 0.95 0.98 0.97 1.02 1.19 1.65 2.09 2.34 2.54 2.70 2.99 3.38 3.69 3.81 3.97 3.94 3.79 3.82 3.83 3.76 3.74 3.31 3.20 3.20 3.20 2.98 2.99 2.99
0.02 0.03 0.03 0.04 0.06 0.08 0.11 0.08 0.07 0.08 0.16 0.38 0.47 1.03 1.42 1.21 1.09 1.16 1.18 1.11 1.38 1.70 1.72 1.88 2.19 2.51 2.69 2.92 3.27 3.51 3.56 3.52 3.43 3.54 3.59 3.48 3.27 3.12 3.25 3.53 3.49 3.22 3.00 2.84
0.03 0.03 0.04 0.06 0.06 0.07 0.10 0.08 0.08 0.12 0.18 0.36 0.48 0.80 1.33 1.31 1.31 1.26 1.24 1.32 1.53 1.55 1.48 1.58 1.78 2.11 2.22 2.53 2.82 3.07 3.34 3.44 3.38 3.44 3.38 3.40 3.26 3.27 3.32 3.29 3.30 3.11 2.90 2.57
0.04 0.05 0.05 0.04 0.05 0.06 0.08 0.09 0.15 0.22 0.35 0.70 0.57 0.62 1.11 1.25 1.11 1.07 1.15 1.18 1.35 1.34 1.33 1.51 1.67 1.90 2.03 2.18 2.31 2.44 2.66 2.94 3.11 3.16 3.14 3.17 3.13 3.12 3.04 2.95 2.83 2.64 2.49 2.22
0.09 0.10 0.08 0.06 0.06 0.08 0.08 0.13 0.48 0.86 1.06 1.09 0.60 0.64 1.12 1.04 0.93 0.87 1.03 1.09 1.13 1.07 1.05 1.28 1.42 1.55 1.70 1.84 1.93 2.02 2.21 2.54 2.70 2.70 2.68 2.80 2.86 2.88 2.80 2.76 2.60 2.40 2.17 1.89
0.17 0.22 0.13 0.08 0.08 0.10 0.10 0.13 0.41 0.74 0.84 0.89 0.73 1.08 1.51 1.04 0.92 0.90 0.93 0.94 0.91 0.85 0.82 0.99 1.22 1.48 1.62 1.57 1.65 1.77 2.00 2.24 2.34 2.27 2.41 2.62 2.69 2.78 2.67 2.70 2.45 2.21 2.01 1.90
0.11 0.11 0.09 0.08 0.11 0.12 0.11 0.11 0.18 0.35 0.44 0.69 0.94 1.21 1.24 0.80 0.75 0.81 0.83 0.85 0.94 0.88 0.81 0.88 0.98 1.16 1.23 1.25 1.35 1.50 1.86 2.16 2.28 2.31 2.45 2.54 2.60 2.60 2.51 2.40 2.23 2.03 2.04 1.98
0.05 0.07 0.09 0.08 0.10 0.12 0.11 0.13 0.19 0.27 0.46 0.71 0.92 1.22 1.34 0.96 0.78 0.59 0.55 0.60 0.60 0.60 0.62 0.70 0.74 0.84 0.96 1.15 1.41 1.57 1.71 2.01 2.15 2.20 2.31 2.36 2.54 2.47 2.31 2.21 2.03 1.88 1.80 1.83
0.05 0.04 0.07 0.10 0.12 0.14 0.14 0.13 0.15 0.20 0.28 0.49 0.94 1.18 0.93 0.77 0.64 0.59 0.57 0.62 0.54 0.51 0.50 0.57 0.72 0.86 1.00 1.15 1.34 1.41 1.45 1.61 1.77 1.88 2.07 2.06 2.08 2.16 2.22 2.08 1.84 1.75 1.75 1.80
0.05 0.04 0.07 0.14 0.19 0.17 0.15 0.13 0.14 0.19 0.20 0.30 0.54 0.78 0.60 0.66 0.66 0.57 0.59 0.65 0.67 0.65 0.59 0.62 0.81 0.98 1.08 1.21 1.23 1.22 1.27 1.41 1.57 1.75 1.94 2.02 2.03 2.09 2.11 1.99 1.81 1.77 1.79 1.85
0.06 0.06 0.11 0.29 0.40 0.27 0.17 0.13 0.13 0.15 0.14 0.23 0.45 0.71 0.49 0.46 0.57 0.71 0.95 1.14 0.93 0.77 0.70 0.77 0.87 0.91 0.94 1.02 1.12 1.10 1.09 1.24 1.41 1.63 1.97 2.14 2.17 2.12 2.06 1.91 1.71 1.65 1.66 1.77
0.09 0.07 0.12 0.31 0.43 0.37 0.27 0.18 0.14 0.12 0.15 0.20 0.27 0.56 0.52 0.51 0.58 0.78 0.96 0.89 0.86 0.80 0.74 0.85 0.86 0.94 0.91 0.88 0.96 0.95 1.00 1.10 1.33 1.53 1.74 1.85 1.77 1.73 1.77 1.70 1.57 1.51 1.54 1.61
0.13 0.08 0.07 0.12 0.22 0.24 0.24 0.23 0.19 0.15 0.13 0.23 0.27 0.40 0.49 0.54 0.66 0.83 1.01 0.99 0.93 0.76 0.67 0.75 0.75 0.79 0.82 0.83 0.92 0.87 0.88 0.93 1.07 1.26 1.37 1.50 1.51 1.48 1.48 1.53 1.57 1.59 1.67 1.67
0.19 0.19 0.14 0.16 0.20 0.25 0.28 0.26 0.20 0.14 0.12 0.17 0.26 0.41 0.54 0.61 0.70 0.78 0.78 0.71 0.63 0.58 0.48 0.46 0.64 0.74 0.70 0.70 0.74 0.69 0.75 0.88 1.02 1.12 1.21 1.41 1.56 1.60 1.59 1.62 1.71 1.75 1.74 1.74
0.26 0.29 0.27 0.26 0.25 0.26 0.35 0.34 0.25 0.16 0.14 0.21 0.33 0.51 0.68 0.57 0.60 0.67 0.67 0.67 0.61 0.59 0.46 0.41 0.50 0.67 0.67 0.68 0.68 0.75 0.87 1.00 1.10 1.25 1.37 1.55 1.66 1.76 1.77 1.73 1.83 1.80 1.80 1.85
0.41 0.43 0.34 0.33 0.44 0.52 0.38 0.31 0.30 0.29 0.27 0.28 0.40 0.43 0.58 0.58 0.64 0.76 0.75 0.75 0.59 0.53 0.46 0.46 0.47 0.50 0.56 0.63 0.68 0.82 1.10 1.35 1.39 1.52 1.69 1.78 1.87 1.84 1.82 1.83 1.85 1.92 2.01 2.04
0.35 0.53 0.49 0.48 0.62 0.53 0.46 0.33 0.36 0.41 0.55 0.56 0.64 0.62 0.57 0.57 0.69 0.78 0.67 0.60 0.61 0.51 0.47 0.50 0.55 0.58 0.66 0.72 0.75 0.94 1.18 1.47 1.63 1.65 1.74 1.90 1.99 2.03 2.05 2.08 2.04 2.10 2.21 2.17
0.37 0.53 0.65 0.61 0.76 0.75 0.62 0.48 0.47 0.59 1.04 0.87 0.80 0.82 0.71 0.67 0.82 0.91 0.83 0.75 0.69 0.63 0.59 0.61 0.64 0.76 0.93 1.00 1.02 1.14 1.26 1.40 1.58 1.65 1.76 1.94 2.18 2.23 2.26 2.40 2.47 2.39 2.35 2.21
0.66 0.74 0.77 0.76 0.83 0.90 0.76 0.69 0.72 1.13 1.41 1.09 0.92 0.89 0.88 0.99 1.01 0.95 0.84 0.84 0.78 0.68 0.70 0.69 0.72 0.88 1.10 1.23 1.26 1.36 1.49 1.58 1.59 1.68 1.81 2.02 2.21 2.30 2.37 2.52 2.59 2.54 2.49 2.46
0.86 0.92 0.92 0.93 1.11 1.27 0.88 0.84 1.25 1.52 1.27 1.26 1.25 1.17 1.04 1.02 0.98 0.94 0.85 0.83 0.77 0.74 0.81 0.84 0.89 1.03 1.23 1.40 1.37 1.43 1.50 1.55 1.61 1.62 1.73 1.87 2.03 2.07 2.16 2.41 2.49 2.55 2.58 2.52
0.93 1.04 1.13 1.24 1.35 1.24 1.03 1.10 1.27 1.41 1.57 1.48 1.37 1.37 1.18 1.13 1.05 0.95 0.87 0.83 0.81 0.78 0.84 0.91 0.97 1.14 1.37 1.53 1.55 1.62 1.52 1.60 1.64 1.67 1.80 1.94 2.01 2.07 2.17 2.27 2.30 2.37 2.45 2.40
1.10 0.97 1.17 1.41 1.45 1.36 1.22 1.08 1.01 1.15 1.26 1.25 1.24 1.24 1.19 1.15 1.09 1.00 0.90 0.82 0.82 0.82 0.78 0.84 0.95 1.02 1.11 1.31 1.49 1.59 1.66 1.71 1.73 1.74 1.78 1.87 1.98 1.98 2.03 2.16 2.25 2.35 2.45 2.52
1.29 1.14 1.37 1.68 1.58 1.45 1.44 1.32 1.20 1.27 1.34 1.26 1.19 1.16 1.16 1.14 1.08 0.94 0.91 0.89 0.87 0.86 0.81 0.83 0.92 0.94 1.00 1.09 1.22 1.31 1.44 1.57 1.63 1.68 1.72 1.73 1.76 1.85 1.94 1.98 2.06 2.06 2.16 2.20
1.40 1.37 1.67 2.01 1.76 1.61 1.56 1.42 1.30 1.36 1.34 1.41 1.49 1.44 1.22 1.10 1.17 1.10 0.97 0.88 0.87 0.88 0.88 0.90 0.91 0.89 0.93 0.99 1.15 1.26 1.37 1.52 1.64 1.71 1.74 1.66 1.61 1.68 1.73 1.78 1.76 1.76 1.71 1.73